Change the Weather History Date:

Sunday, July 28, 2013

  Actual Average Record
Temperature  
Mean Temperature 52 °F -  
Max Temperature 55 °F - - ()
Min Temperature 50 °F - - ()
Degree Days  
Heating Degree Days 12    
Growing Degree Days 2 (Base 50)    
Moisture  
Dew Point 47 °F    
Average Humidity 80    
Maximum Humidity 91    
Minimum Humidity 56    
Precipitation  
Precipitation 0.00 in - - ()
Sea Level Pressure  
Sea Level Pressure 29.96 in    
Wind  
Wind Speed 11 mph ()    
Max Wind Speed 20 mph    
Max Gust Speed 31 mph    
T = Trace of Precipitation, MM = Missing Value Source: Averaged Metar Reports

Daily Weather History Graph

Daily Weather History Graph

Search for Another Location

Airport or City:

Trip Planner

Search our weather history database for the weather conditions in past years. The results will help you decide how hot, cold, wet, or windy it might be!

Date:

Astronomy

Jul. 28, 2013 Rise Set
Actual Time 4:35 AM MDT 10:21 PM MDT
Civil Twilight 3:15 AM MDT 11:38 PM MDT
Nautical Twilight Sun does not rise Sun does not rise
Astronomical Twilight Sun does not rise Sun does not rise
Moon 11:05 PM MDT (7/28) 1:56 PM MDT (7/28)
Length of Visible Light 20h 23m
Length of Day
17h 45m
Waning Gibbous, 60% of the Moon is Illuminated
Jul 28
Waning Gibbous
Jul 29
Last Quarter
Aug 6
New
Aug 14
First Quarter
Aug 20
Full

Hourly Weather History & Observations

Time (MDT) Temp. Dew Point Humidity Pressure Visibility Wind Dir Wind Speed Gust Speed Precip Events Conditions
12:00 AM 55 °F 51 °F 81% 29.91 in - ENE 13.8 mph - -  
12:00 AM 54.7 °F 51.1 °F 88% 29.91 in - ENE 12.7 mph 20.7 mph N/A   Unknown
1:00 AM 53.6 °F 50.9 °F 91% 29.91 in - NNE 4.6 mph - N/A   Unknown
2:00 AM 52.7 °F 49.8 °F 90% 29.92 in - NNE 10.4 mph 17.3 mph N/A   Unknown
3:00 AM 51.8 °F 48.7 °F 89% 29.92 in - NNE 9.2 mph 21.9 mph N/A   Unknown
4:00 AM 51.1 °F 48.6 °F 91% 29.90 in - NE 13.8 mph - N/A   Unknown
5:00 AM 50.2 °F 47.3 °F 90% 29.90 in - NE 19.6 mph 31.1 mph N/A   Unknown
6:00 AM 50 °F 47 °F 87% 29.91 in - NE 15.0 mph - -  
6:00 AM 50.0 °F 47.5 °F 91% 29.91 in - ENE 13.8 mph 21.9 mph N/A   Unknown
7:00 AM 50.2 °F 47.5 °F 90% 29.91 in - NNE 10.4 mph - N/A   Unknown
8:00 AM 50.2 °F 47.1 °F 89% 29.91 in - NE 16.1 mph 21.9 mph N/A   Unknown
9:00 AM 50.2 °F 46.9 °F 89% 29.93 in - NNE 12.7 mph - N/A   Unknown
10:00 AM 50.4 °F 47.1 °F 89% 29.94 in - NE 13.8 mph 20.7 mph N/A   Unknown
11:00 AM 50.4 °F 47.5 °F 90% 29.95 in - NNE 10.4 mph 18.4 mph N/A   Unknown
12:00 PM 51 °F 47 °F 80% 29.96 in - NNE 11.5 mph - -  
12:00 PM 51.3 °F 46.8 °F 85% 29.96 in - NNE 13.8 mph 23.0 mph N/A   Unknown
1:00 PM 52.2 °F 46.2 °F 80% 29.97 in - NNE 10.4 mph 23.0 mph N/A   Unknown
2:00 PM 54.0 °F 45.9 °F 74% 29.97 in - NE 17.3 mph 24.2 mph N/A   Unknown
3:00 PM 54.1 °F 45.5 °F 73% 29.98 in - NE 15.0 mph 23.0 mph N/A   Unknown
4:00 PM 54.7 °F 45.0 °F 70% 29.99 in - NE 15.0 mph 21.9 mph N/A   Unknown
5:00 PM 54.7 °F 43.9 °F 67% 30.00 in - NE 13.8 mph 21.9 mph N/A   Unknown
6:00 PM 55 °F 44 °F 56% 30.01 in - NE 15.0 mph - -  
6:00 PM 54.9 °F 43.7 °F 66% 30.01 in - NE 11.5 mph 21.9 mph N/A   Unknown
7:00 PM 55.9 °F 43.9 °F 64% 30.01 in - ENE 13.8 mph 20.7 mph N/A   Unknown
8:00 PM 54.7 °F 42.8 °F 64% 30.01 in - NE 10.4 mph 17.3 mph N/A   Unknown
9:00 PM 54.5 °F 42.8 °F 65% 30.02 in - ENE 12.7 mph - N/A   Unknown
10:00 PM 52.5 °F 43.3 °F 71% 30.02 in - NE 8.1 mph - N/A   Unknown
11:00 PM 50.4 °F 43.3 °F 77% 30.02 in - NNE 5.8 mph - N/A   Unknown